Regional Weather Roundup
Issued by NWS

Home | Current Version | Previous Version | Text Only | Print | Product List | Glossary On
Versions: 1 2 3 4 5 6 7 8 9 10 11 12 13 14 15 16 17 18 19 20 21 22 23 24 25 26 27 28 29 30 31 32 33 34 35 36 37 38 39 40 41 42 43 44 45 46 47 48 49 50
000
ASUS43 KLOT 310610
RWRIL

ILLINOIS REGIONAL WEATHER ROUNDUP
NATIONAL WEATHER SERVICE CHICAGO/ROMEOVILLE IL
1200 AM CST SAT JAN 31 2015

NOTE: "FAIR" INDICATES FEW OR NO CLOUDS BELOW 12,000 FEET WITH NO
SIGNIFICANT WEATHER AND/OR OBSTRUCTIONS TO VISIBILITY.

* THESE STATIONS ARE NOT UNDER NWS QUALITY CONTROL. THEY ALSO MAY NOT
  REPORT WEATHER SUCH AS PRECIPITATION OR FOG.

ILZ001-002-007-009-015-016-024-310700-
NORTHWEST ILLINOIS

CITY           SKY/WX    TMP DP  RH WIND       PRES   REMARKS
MOLINE         MOCLDY    24  18  77 S6        30.33F WCI  17
6HR MIN TEMP:  19; 6HR MAX TEMP:  27;

STERLING*      CLOUDY    23  18  80 S3        30.34F
SAVANNA*       CLOUDY    24  19  80 SE3       30.33F
$$

ILZ003-004-008-010-011-017-018-310700-
NORTH CENTRAL ILLINOIS

CITY           SKY/WX    TMP DP  RH WIND       PRES   REMARKS
ROCKFORD       CLOUDY    20  15  81 S5        30.35F WCI  13
6HR MIN TEMP:  18; 6HR MAX TEMP:  24;

FREEPORT*      CLOUDY    23  17  79 S7        30.34S WCI  14
ROCHELLE*      CLOUDY    20  16  84 S7        30.34F WCI  11
DE KALB*       CLOUDY    19  15  82 S8        30.34F WCI   9
PERU*          MOCLDY    23  19  83 S5        30.35F WCI  17
$$

ILZ005-006-012>014-019>023-310700-
NORTHEAST ILLINOIS

CITY           SKY/WX    TMP DP  RH WIND       PRES   REMARKS
CHICAGO-OHARE  PTCLDY    20  13  74 S7        30.35F WCI  11
6HR MIN TEMP:  18; 6HR MAX TEMP:  25;

CHICAGO-MIDWAY PTCLDY    23  14  68 SW5       30.36F WCI  17
6HR MIN TEMP:  23; 6HR MAX TEMP:  28;

AURORA         CLOUDY    19  14  81 CALM      30.35F
6HR MIN TEMP:  18; 6HR MAX TEMP:  24;

LANSING*       CLEAR     19  14  82 S5        30.37F WCI  12
JOLIET*        PTCLDY    16  13  89 CALM      30.37F
WAUKEGAN       PTCLDY    16  12  84 S5        30.32F WCI   9
6HR MIN TEMP:  16; 6HR MAX TEMP:  23;

DUPAGE AIRPORT MOCLDY    17  12  80 S3        30.34F
6HR MIN TEMP:  15; 6HR MAX TEMP:  24;

KANKAKEE*      CLEAR     23  20  87 S6        30.38F WCI  16
WHEELING       CLEAR     19  12  74 S5        30.36F WCI  12
6HR MIN TEMP:  19; 6HR MAX TEMP:  26;

MORRIS*        MOCLDY    21  19  92 CALM      30.36F
ROMEOVILLE*    MOCLDY    19  15  84 S6        30.36F WCI  11
NORTHERLY ISL    N/A     25  14  63 S6          N/A  WCI  18
$$

LMZ740>746-310700-
SOUTHERN LAKE MICHIGAN

STATION/POSITION SKY/WX   TEMP    WIND        PRES    VSBY  WAVE
                          AIR SEA DIR/SP/G                  HT/PER
                          (F)     (DEG/KT/KT) (MB)    (MI)  (FT/S)
WAUKEGAN HARBOR            21     220/  7/  9   N/A
HARRISON CRIB              25     200/ 13/ 16   N/A
BURNHAM HARBOR             25     200/  4/  6   N/A
CALUMET HARBOR             24     200/  4/  5   N/A
MICHIGAN CITY              23     170/  9/ 11   N/A
$$

ILZ025>027-034>036-040-047-049-050-058-095>099-310700-
WEST-CENTRAL ILLINOIS

CITY           SKY/WX    TMP DP  RH WIND       PRES   REMARKS
QUINCY         PTCLDY    26  18  71 S6        30.35F WCI  19
GALESBURG*     CLEAR     23  20  87 S5        30.34F WCI  17
MACOMB*        CLEAR     25  21  83 S6        30.37F WCI  18
JACKSONVILLE*  CLEAR     29  20  71 S6        30.38F WCI  22
PITTSFIELD*    PTCLDY    28  22  79 S6        30.38F WCI  21
$$

ILZ028>032-037-038-041>044-048-051>054-059>061-310700-
CENTRAL ILLINOIS

CITY           SKY/WX    TMP DP  RH WIND       PRES   REMARKS
PONTIAC        MOCLDY    27  22  84 S7        30.37F WCI  19
BLOOMINGTON    CLEAR     22  19  88 SW7       30.37F WCI  14
DECATUR        CLEAR     25  20  81 S3        30.39F
PEORIA         CLEAR     26  19  74 SW5       30.37F WCI  20
6HR MIN TEMP:  25; 6HR MAX TEMP:  30;

LACON*         CLEAR     20  17  86 CALM      30.36F
LINCOLN*       CLEAR     26  22  86 S3        30.40F
SPRINGFIELD    CLEAR     25  19  78 S7        30.39F WCI  17
6HR MIN TEMP:  24; 6HR MAX TEMP:  31;

TAYLORVILLE    FAIR      27  21  80 S5        30.40S WCI  21
$$

ILZ033-039-045-046-055>057-062-063-310700-
EAST-CENTRAL ILLINOIS

CITY           SKY/WX    TMP DP  RH WIND       PRES   REMARKS
CHAMPAIGN      CLEAR     22  18  85 S7        30.38F WCI  13
DANVILLE*      CLEAR     21  19  89 CALM      30.37F
RANTOUL*       CLEAR     25  20  80 S3        30.38F
MATTOON        CLEAR     23  17  78 S5        30.39F WCI  17
PARIS*         CLEAR     23  21  93 CALM      30.41F
$$

ILZ079-100>102-310700-
SOUTHWEST ILLINOIS

CITY           SKY/WX    TMP DP  RH WIND       PRES   REMARKS
ALTON          MOCLDY    27  21  76 SE3       30.40F
BELLEVILLE     CLOUDY    25  22  87 S2        30.40F
CAHOKIA*       CLOUDY    29  22  75 CALM      30.41F
SPARTA*        CLOUDY    28  22  75 SE3       30.43F
$$

ILZ064>066-069>071-074>076-080>082-084>086-088>090-092>094-310700-
SOUTH-CENTRAL ILLINOIS

CITY           SKY/WX    TMP DP  RH WIND       PRES   REMARKS
CARBONDALE     MOCLDY    24  20  84 CALM      30.43F
6HR MIN TEMP:  22; 6HR MAX TEMP:  32;

CAIRO*         MOCLDY    34  24  66 SE3       30.44S
EFFINGHAM*     CLEAR     22  19  86 CALM      30.43F
MARION         MOCLDY    27  23  86 CALM      30.43F
MT. VERNON     PTCLDY    21  16  79 CALM      30.42F
CENTRALIA*     PTCLDY    24  21  89 CALM      30.41F
SALEM*         PTCLDY    26  21  80 CALM      30.41F
METROPOLIS*    MOCLDY    28  23  84 CALM      30.42F
$$

ILZ067-068-072-073-078-083-087-091-310700-
SOUTHEAST ILLINOIS

CITY           SKY/WX    TMP DP  RH WIND       PRES   REMARKS
LAWRENCEVILLE  CLEAR     23  20  88 CALM      30.43F
FLORA*         CLEAR     23  22  96 CALM      30.42F
FAIRFIELD*     PTCLDY    23  20  87 CALM      30.42F
HARRISBURG*    MOCLDY    25  23  94 CALM      30.44F
ROBINSON*      CLEAR     20  19  96 CALM      30.44F
CARMI*         PTCLDY    24  24  97 CALM      30.43F
$$

ABBREVIATIONS USED IN REMARKS
   TC - TEMPERATURE IN CELSIUS
  WCI - WIND CHILL INDEX
   HX - HEAT INDEX
  VSB - VISIBILITY
$$



USA.gov is the U.S. government's official web portal to all federal, state and local government web resources and services.